Preview of NWS' New Version of Forecast
This preview is not operational and should not be used for support decisions.

Regional Weather Roundup (RWR)

Issued by Green Bay, WI (GRB)

                            
000
ASUS43 KGRB 170511
RWRGRB

NORTH-CENTRAL AND NORTHEAST WISCONSIN REGIONAL WEATHER ROUNDUP
NATIONAL WEATHER SERVICE GREEN BAY WI
1100 PM CST SUN DEC 16 2018

WIZ005-009-010>012-018-019-170600-
NORTH CENTRAL WISCONSIN
  
CITY           SKY/WX    TMP DP  RH WIND       PRES   REMARKS
IRONWOOD       FAIR      29  19  66 NW23G31   30.04R                  
MANITOWISH WTR FAIR      28  17  63 NW17G29   30.00R                  
ARBOR VITAE    FAIR      32  19  58 NW13G20   29.98R                  
EAGLE RIVER    FAIR      30  15  53 NW14G21   29.95R                  
LAND O LAKES   MOCLDY    31  19  61 NW13G21   29.97R                  
RHINELANDER    FAIR      32  14  47 NW12G21   29.97R                  
PHILLIPS       FAIR      29  15  56 NW7       30.02S                  
ANTIGO         FAIR      31  17  55 NW17G24   29.95S                  
TOMAHAWK       FAIR      30  15  53 W9G18     30.00R                  
MERRILL        FAIR      33  16  51 NW10G18   30.00S                  
$$

WIZ013-073-170600-
NORTHEAST WISCONSIN
  
CITY           SKY/WX    TMP DP  RH WIND       PRES   REMARKS
IRON MOUNTAIN  FAIR      34  19  54 NW18G26   29.92R                  
MARINETTE      FAIR      34  23  64 VRB3      29.96R                  
OCONTO         FAIR      33  22  63 W9        29.96S                  
$$

WIZ017-030-035>037-045-170600-
CENTRAL WISCONSIN
  
CITY           SKY/WX    TMP DP  RH WIND       PRES   REMARKS
MEDFORD        FAIR      30  16  56 W12G17    30.02R                  
WAUSAU         FAIR      32  16  51 NW10      29.98F                  
MOSINEE        FAIR      32  19  59 W10G18    30.02R                  
MARSHFIELD     FAIR      32  18  56 NW16      30.03R                  
WISC RAPIDS    FAIR      29  18  63 W8        30.05S                  
STEVENS POINT  FAIR      32  17  53 W7        30.03R                  
WAUPACA        FAIR      32  22  65 W7        30.02S                  
SHAWANO        FAIR      36  19  51 W6        29.98S                  
CLINTONVILLE   FAIR      33  19  58 W6        29.99F                  
WAUTOMA        FAIR      33  22  63 W12       30.05F                  
$$

WIZ038-039-048-051-170600-
FOX VALLEY
  
CITY           SKY/WX    TMP DP  RH WIND       PRES   REMARKS
NWS GREEN BAY  FAIR      37  23  56 W13       29.99F                  
APPLETON       FAIR      32  19  59 W12       29.99F                  
OSHKOSH        FAIR      34  23  64 W7        30.02F                  
FOND DU LAC    FAIR      33  24  69 W9        30.04R                  
$$

WIZ022-050-052-170600-
EAST CENTRAL WISCONSIN
  
CITY           SKY/WX    TMP DP  RH WIND       PRES   REMARKS
EPHRAIM        FAIR      34  26  72 W8        29.92R                  
WASHINGTON ISL FAIR      37  23  59 W7        29.92R                  
STURGEON BAY   FAIR      37  22  54 W13       29.95S                  
MANITOWOC      FAIR      36  24  62 W9        29.99F                  
SHEBOYGAN      FAIR      36  24  62 W10       30.01S                  
$$

LMZ563-521-522-541>543-170600-
LAKESHORE
  
STATION/POSITION TIME  TEMP    WIND        PRES    VSBY  WAVE
                       AIR SEA DIR/SP/G                  HT/PER
                 (UTC) (F)     (DEG/KT/KT) (MB)    (MI)  (FT/S)
SHEBOYGAN LKSHOR 0500   38     280/ 14/ 18 1016.6R
KEWAUNEE LKSHORE 0436   38     270/  8/ 11 1013.8F
NORTHPORT PIER   0440   40     280/  5/  8 1013.2R
SISTER BAY LKSHO 0413   37     260/ 12/ 13   N/A
CHAMBERS ISLAND  0440   36     230/  7/  9 1013.2S
MENOMINEE LKSHOR 0436   36 34  250/  7/ 10 1013.8S
$$